User: anonymous   Login
Location: Unspecified
(43.4354°N, 0.0000°E)
Time: 13:31:58
(UTC+00:00)
Language:

NUDT-PHONESAT - Orbit

View from above orbital plane
View from above orbital plane
View from above satellite
View from above satellite

Ground track
Ground track

The orbit data is extracted from the following two-line orbital elements,

1 40900U 15049B   19229.03879126  .00001088  00000-0  49332-4 0  9993
2 40900  97.4374 237.7932 0012555 344.2694  80.5751 15.22931496216694
Epoch (UTC): 17 August 2019 00:55:51
Eccentricity: 0.0012555
inclination: 97.4374°
perigee height: 488 km
apogee height: 505 km
right ascension of ascending node: 237.7932°
argument of perigee: 344.2694°
revolutions per day: 15.22931496
mean anomaly at epoch: 80.5751°
orbit number at epoch: 21669

The dashed part of the orbit path shows where the satellite is in the earth's shadow,  

DLR